星链-31327 (STARLINK-31327 )

导读

STARLINK-31327是美国SpaceX星链计划的卫星,于2024年3月4日发射,属于低轨卫星星座组网卫星,主要为全球提供高速互联网服务,尤其覆盖偏远地区和网络基础设施薄弱区域。该卫星延续星链设计,具备自动脱轨离轨能力,可降低空间碎片风险,支撑星链系统持续扩容与服务升级。

基本信息
目录编号:
59160
目录名称:
STARLINK-31327
国际标识:
2024-044J
轨道中心:
EARTH
卫星名称:
星链-31327
卫星全名:
星链-31327 (STARLINK-31327 )
卫星状态:
在轨 (已飞行914 天)
发射日期:
2024-03-04 UTC
国别 :
美国 (US)
星等 :
--
轨道信息
数据来源 国际轨道数据 AOE轨道数据
星历时间 2026-09-04T04:49:48+0800
11小时前
查看轨道信息
2026-09-03T23:00:00+0800
16小时前
查看轨道信息
半长轴 6861.174km 6861.18km
偏心率 0.0000872 0.0001524
轨道倾角 43.002° 43.002°
近地点辐角 265.809° 233.753°
升交点赤经 180.944° 182.316°
平近点角 94.266° 228.932°
近地点 482.438km 481.997km
远地点 483.636km 484.089km
周期 94.266分钟 94.267分钟
每日圈数 15.275841 15.275822
详细信息
固有亮度:
5
最大亮度:
0.3
卫星平台:
Starlink v2.0 mini
覆盖范围:
全球
运营商:
太空探索技术公司
运营商所在国:
美国
制造商(研发单位):
太空探索技术公司
制造商所在国:
美国
使用方式:
暂无
卫星简介
星链(Starlink)计划是由太空探索技术公司(SpaceX)提出的一个巨型低轨卫星互联网星座项目,计划在2019年至2024年间在太空搭建由约1.2万颗卫星组成的“星链”网络,其中1584颗将部署在地球上空550千米处的近地轨道,并从2020年开始工作。该卫星仍在工作。
2D轨道图
3D轨道图
轨道高度分析图
轨道倾角分析图
轨道综合分析图
查看轨道综合分析图
交会数据列表
事件ID 空间交会对象 最接近时刻(TCA) 交会距离 交会风险概率(CRP) 交会风险指数(CRI) 操作
CDM_260829-090805-916005-993921
2026-08-29T
09:08:21+0000
0.403 km
远距离
2.54146E-4 高风险 0.83
CDM_260829-092905-916006-215521
2026-08-29T
09:29:59+0000
0.834 km
远距离
2.376248E-5 中风险 0.63
CDM_260905-041905-916006-289521
2026-09-05T
04:19:29+0000
1.185 km
极远距离
1.126982E-5 中风险 0.56
CDM_260829-104205-916005-993921
2026-08-29T
10:42:31+0000
1.282 km
极远距离
8.451495E-6 低风险 0.54
CDM_260904-202605-916006-749321
2026-09-04T
20:26:57+0000
1.416 km
极远距离
6.263977E-6 低风险 0.51
CDM_260829-073405-916005-993921
2026-08-29T
07:34:12+0000
2.058 km
极远距离
2.034169E-6 低风险 0.41
CDM_260904-185205-916006-749321
2026-09-04T
18:52:48+0000
2.266 km
极远距离
1.69118E-6 低风险 0.4
CDM_260905-024505-916006-289521
2026-09-05T
02:45:20+0000
2.372 km
极远距离
1.519175E-6 低风险 0.39
CDM_260905-063805-916006-749321
2026-09-05T
06:38:56+0000
2.585 km
极远距离
1.324567E-6 低风险 0.37
CDM_260905-050405-916006-749321
2026-09-05T
05:04:47+0000
2.664 km
极远距离
1.263197E-6 低风险 0.37